Overview Statistics Trail Chart Weather Telemetry Raw packets
 

This is the latest recevied weather packets stored in our database for station/object 4S6DRJ-13. If no packets are shown the sender has not sent any weather packets the latest 10 day(s).

<< 305 306 307 308 309 310 311 >>
Time Temp. Humidity Pressure Rain* Wind** Luminosity Snow
1788016706 28.33° C 83% 1010.6 hPa 0 mm 0.89 m/s, 225° 0 W/m² -
1788016645 28.33° C 83% 1010.7 hPa 0 mm 1.79 m/s, 238° 0 W/m² -
1788016584 28.33° C 83% 1010.5 hPa 0 mm 0.89 m/s, 215° 0 W/m² -
1788016523 28.33° C 83% 1010.5 hPa 0 mm 1.34 m/s, 271° 0 W/m² -
1788016462 28.33° C 83% 1010.5 hPa 0 mm 0.89 m/s, 195° 0 W/m² -
1788016401 28.33° C 82% 1010.7 hPa 0 mm 0.45 m/s, 211° 0 W/m² -
1788016340 28.33° C 82% 1010.5 hPa 0 mm 1.34 m/s, 238° 0 W/m² -
1788016279 28.33° C 82% 1010.7 hPa 0 mm 0.89 m/s, 241° 0 W/m² -
1788016218 28.33° C 82% 1010.8 hPa 0 mm 0 m/s 0 W/m² -
1788016157 28.33° C 82% 1010.5 hPa 0 mm 0.45 m/s, 208° 0 W/m² -
1788016096 28.33° C 82% 1010.6 hPa 0 mm 0.89 m/s, 257° 0 W/m² -
1788016035 28.33° C 82% 1010.6 hPa 0 mm 1.34 m/s, 257° 0 W/m² -
1788015975 28.33° C 82% 1010.7 hPa 0 mm 1.79 m/s, 200° 0 W/m² -
1788015913 28.33° C 82% 1010.5 hPa 0 mm 0.45 m/s, 218° 0 W/m² -
1788015852 28.33° C 82% 1010.6 hPa 0 mm 0.89 m/s, 219° 0 W/m² -
1788015792 28.33° C 82% 1010.4 hPa 0 mm 0.45 m/s, 212° 0 W/m² -
1788015730 28.33° C 82% 1010.5 hPa 0 mm 0.89 m/s, 215° 0 W/m² -
1788015670 28.33° C 82% 1010.6 hPa 0 mm 1.34 m/s, 200° 0 W/m² -
1788015608 28.33° C 82% 1010.5 hPa 0 mm 0.45 m/s, 203° 0 W/m² -
1788015547 28.33° C 82% 1010.4 hPa 0 mm 1.79 m/s, 231° 0 W/m² -
1788015486 28.33° C 82% 1010.6 hPa 0 mm 0 m/s 0 W/m² -
1788015425 28.33° C 82% 1010.5 hPa 0 mm 0.45 m/s, 269° 0 W/m² -
1788015364 28.33° C 82% 1010.5 hPa 0 mm 0 m/s 0 W/m² -
1788015304 28.33° C 81% 1010.4 hPa 0 mm 1.79 m/s, 229° 0 W/m² -
1788015242 28.33° C 81% 1010.6 hPa 0 mm 0.89 m/s, 210° 0 W/m² -

* Rain latest hour (hover to see other rain measurements)
** Current wind speed in m/s (hover to see current wind gust speed)